RH
58 65 69 58 53 57 55 54 51 53 58 55 55 54 56 60 56 58 59 54 51 53 51 50 52 47 44 45 40 40 48 49 47 50 46 36 30 23 18 19 19 20 20 20 20 21 21 21 22 23 23 23 24 24 25 25 26 26 26 25 25 25 24 24 24 23 23 22 21 20 20 21 22 27 39 52 60 64 67 70 68 63 69 79 78
55 67 69 59 57 61 62 63 56 55 56 52 54 55 54 55 53 58 62 57 53 52 48 49 51 45 43 43 39 40 45 42 38 43 42 35 30 24 20 20 19 20 20 20 20 21 21 21 22 23 23 24 24 25 25 26 26 26 26 26 25 23 23 22 22 21 19 19 18 17 17 18 19 22 28 39 51 60 65 69 72 68 65 72 80
58 70 68 62 66 63 61 66 59 54 53 51 55 54 52 52 52 55 54 51 52 51 48 49 49 46 44 39 34 35 34 31 31 32 30 29 28 23 20 20 20 20 20 21 21 21 22 22 23 24 24 25 26 26 27 27 27 27 26 25 23 22 21 20 19 17 15 13 13 12 13 13 15 18 22 28 36 48 60 65 68 72 70 69 74
61 69 67 62 69 68 64 65 57 53 54 55 57 53 53 54 52 49 44 45 49 48 49 51 49 47 44 38 35 31 24 22 24 22 22 26 26 21 19 21 21 21 21 21 22 22 23 24 25 26 27 27 28 28 28 28 27 26 24 22 20 19 17 17 15 13 10 8 8 7 7 7 9 12 16 21 25 37 52 60 64 69 73 73 73
65 66 67 63 66 67 68 69 60 55 57 56 58 57 56 52 47 45 43 46 51 50 50 52 54 49 39 32 28 24 20 19 20 20 20 22 22 21 21 22 22 23 23 23 23 24 25 26 27 28 29 29 29 29 28 27 26 23 21 19 17 15 13 12 10 8 7 5 4 4 3 3 4 5 9 13 17 25 35 46 59 66 69 72 74
69 66 67 70 68 64 68 72 60 54 55 55 57 56 50 46 45 47 46 49 52 51 50 52 53 43 29 21 20 19 19 19 20 20 21 21 22 23 23 24 24 25 25 25 25 26 27 28 29 30 30 30 29 28 27 25 23 20 17 15 13 10 8 7 6 5 4 3 3 2 2 2 2 2 3 6 10 15 20 29 43 56 66 70 74
70 71 70 70 64 61 67 66 54 49 52 52 52 50 46 44 44 43 45 49 51 48 42 37 32 26 20 18 19 19 20 20 21 21 22 22 23 24 25 26 26 26 27 27 27 28 29 30 30 30 30 29 28 26 24 22 19 17 13 10 8 6 5 4 4 4 3 3 2 2 2 2 1 2 2 2 3 7 12 19 28 44 62 68 72
71 74 74 68 60 63 67 61 53 50 52 48 39 38 38 33 30 25 29 37 39 38 30 20 18 19 18 19 20 20 21 21 21 22 22 23 24 25 26 27 28 28 28 28 29 29 30 31 30 30 29 28 26 23 20 17 15 12 9 7 5 4 3 3 3 2 2 2 2 2 1 2 1 1 1 1 2 2 4 10 18 31 44 49 57
75 73 72 68 62 65 67 60 55 51 49 38 22 21 22 18 18 17 17 21 23 24 20 17 19 19 19 20 20 21 21 21 22 23 23 24 25 27 28 30 31 30 30 30 30 31 31 31 30 29 27 24 21 17 14 12 9 7 6 4 3 3 2 2 2 2 2 2 2 2 1 2 1 2 1 1 2 1 1 3 7 16 26 31 38
78 71 64 64 63 62 62 60 58 49 38 25 14 16 16 15 17 17 16 17 19 19 18 19 20 20 21 21 21 22 22 22 24 24 25 27 28 30 31 33 33 32 32 31 31 31 31 31 29 26 22 18 14 11 8 6 5 4 3 3 2 2 2 2 2 2 2 2 2 2 1 2 1 1 2 2 1 1 2 1 2 5 12 21 26
75 69 61 61 60 58 60 61 56 40 24 17 16 17 16 16 17 16 18 18 19 20 19 20 21 21 22 22 22 23 23 25 26 27 29 30 32 34 35 35 35 33 32 32 32 31 29 27 23 19 14 11 7 5 4 3 3 2 2 2 2 2 2 2 2 2 2 2 2 2 2 2 2 2 1 1 2 1 2 1 1 2 2 9 17
74 68 62 61 61 61 60 54 42 27 17 17 17 17 16 17 17 18 19 19 20 21 20 21 21 21 21 22 23 24 26 28 30 32 34 35 36 37 37 37 35 33 32 31 29 26 22 18 13 10 7 5 4 3 3 2 2 2 2 2 2 2 2 2 2 2 2 2 2 2 2 2 2 2 2 1 2 1 2 1 1 2 1 2 6
75 67 62 63 63 62 58 44 28 18 18 21 20 17 17 18 18 19 19 20 23 22 20 21 20 19 20 22 24 27 31 34 36 38 39 40 40 39 37 35 33 32 30 28 24 19 14 10 7 5 4 3 3 2 2 2 2 2 2 2 2 2 2 2 2 2 2 2 2 2 2 2 2 2 2 1 2 1 1 2 1 1 1 1 1
74 66 63 64 63 63 54 32 18 18 23 29 26 19 17 18 19 20 22 23 23 21 19 17 18 20 23 27 32 37 39 39 43 44 43 41 39 37 35 33 31 28 25 21 17 12 8 6 4 3 2 2 2 2 2 2 2 2 2 2 2 2 2 2 2 2 2 2 2 2 2 2 2 2 2 2 2 2 1 1 2 2 1 2 2
72 67 65 64 62 59 42 22 20 27 30 30 24 18 18 19 20 22 22 21 20 18 17 19 25 29 32 35 35 37 39 41 45 44 40 37 34 33 31 29 26 22 18 14 10 8 5 4 3 2 2 2 2 2 2 2 2 2 2 2 2 2 2 2 2 2 2 2 2 2 2 2 2 2 2 2 2 2 2 2 1 2 2 1 2
70 69 66 60 56 46 31 26 30 30 26 22 19 18 20 21 22 22 20 18 18 20 23 30 35 36 38 38 36 38 38 40 42 37 33 32 30 29 26 22 19 14 12 9 6 5 3 2 2 2 2 2 2 2 2 2 2 2 2 2 2 2 2 2 2 2 2 2 2 2 2 2 2 2 2 2 2 2 2 2 2 1 1 2 2
71 69 64 56 47 35 28 31 29 23 20 19 20 22 23 23 22 19 18 18 21 28 35 38 38 37 39 40 42 46 41 36 35 31 29 29 27 24 20 16 13 10 8 5 4 3 2 2 2 2 2 2 2 2 2 2 2 2 2 2 2 2 2 2 2 2 2 2 2 2 2 2 2 2 2 2 2 2 2 2 2 2 1 2 2
70 68 64 57 44 29 23 24 23 22 23 23 25 26 24 21 20 18 19 23 31 38 39 37 36 36 39 40 42 43 38 32 30 28 27 26 22 18 15 12 9 6 4 3 3 2 2 2 2 2 2 2 2 2 2 2 2 2 2 3 3 2 3 3 3 2 2 2 2 2 2 2 2 2 2 2 2 2 2 2 2 2 2 2 2
69 66 62 52 38 25 22 24 26 27 27 28 28 25 22 20 19 20 24 32 38 38 35 34 35 35 36 38 37 36 34 31 27 25 24 22 18 14 11 9 5 4 3 3 3 2 2 2 2 3 2 3 2 2 2 2 3 3 3 3 3 3 3 3 3 3 3 3 2 2 2 2 2 2 2 2 2 2 2 2 2 2 2 2 2
67 63 54 40 29 24 26 29 30 30 29 28 25 21 19 19 20 25 32 38 37 33 31 32 33 33 34 35 35 35 33 29 24 21 19 18 15 11 8 6 3 3 3 2 3 2 2 2 2 3 2 3 2 2 3 3 3 3 3 4 3 4 4 3 4 3 3 3 2 3 2 2 2 2 2 2 2 2 1 2 2 2 2 2 2
64 56 44 33 27 27 30 31 30 29 27 24 21 19 19 20 26 34 37 36 32 29 30 31 31 33 33 34 35 35 32 28 23 18 12 10 10 9 7 5 3 3 2 2 3 2 2 3 3 3 2 3 3 3 4 4 4 4 4 4 4 4 4 4 4 4 4 3 3 3 2 2 2 2 2 2 2 2 1 2 1 1 2 2 2
62 54 42 31 28 30 31 30 28 26 23 20 19 18 21 27 34 38 37 33 29 28 30 31 32 32 34 36 36 33 30 24 19 14 10 7 6 6 4 3 3 3 2 2 3 3 3 3 2 3 3 3 4 4 4 4 5 5 5 5 5 5 5 5 4 4 4 3 3 3 2 2 2 2 2 2 2 2 1 1 1 1 1 2 2
60 55 44 31 29 30 29 27 24 22 20 18 19 22 29 36 38 38 34 30 29 29 31 32 32 34 36 37 34 30 24 18 14 11 10 7 5 4 3 3 3 2 2 2 3 3 3 3 3 3 4 4 4 5 5 5 5 5 5 5 5 5 5 5 5 4 4 4 3 3 2 2 2 2 2 2 2 2 2 1 1 1 1 1 2
56 52 43 32 28 29 27 25 21 20 19 21 26 32 37 39 38 35 31 29 30 32 33 32 34 36 37 34 30 24 18 14 13 11 9 6 4 3 2 3 3 3 3 2 3 3 3 3 4 4 5 5 5 5 5 5 5 5 5 5 5 5 5 5 5 5 4 4 3 3 3 2 2 3 3 3 3 2 2 2 1 2 2 1 1
55 49 39 30 27 27 25 23 21 23 26 31 36 38 40 39 36 32 30 30 32 33 33 33 36 37 35 31 24 18 15 13 12 10 7 4 3 3 3 3 3 3 3 3 3 3 3 4 5 5 5 5 5 5 5 5 5 5 5 5 5 5 6 5 5 5 4 3 3 2 2 3 4 6 8 8 6 4 4 4 3 3 3 3 1
48 42 35 29 26 25 24 25 28 33 37 40 41 41 40 37 33 31 31 33 34 34 34 35 37 36 32 25 19 15 13 10 9 7 5 3 3 3 3 3 3 3 4 4 4 4 5 5 5 5 5 5 5 5 5 5 5 5 5 5 6 6 6 6 5 4 4 3 3 4 7 10 13 15 18 18 14 11 9 7 6 5 5 6 4
42 39 36 33 29 29 31 36 40 42 43 43 43 40 38 34 32 32 34 35 34 34 36 37 37 33 26 20 15 13 10 8 6 4 3 3 3 3 3 3 3 3 4 4 5 5 5 5 5 5 5 5 5 4 5 5 5 5 5 5 5 6 6 6 5 5 4 3 3 7 14 22 27 29 30 30 27 22 18 15 13 10 7 7 7
46 45 42 41 40 41 44 46 47 46 45 44 41 38 36 34 34 35 36 35 35 36 37 37 34 28 21 16 13 11 8 6 4 3 3 3 3 3 3 3 4 4 4 5 5 5 5 5 5 5 5 5 5 5 5 5 5 5 5 5 5 5 6 6 6 5 3 3 3 8 20 32 38 40 40 39 37 33 28 23 19 16 13 10 9
49 49 51 52 52 52 51 51 49 49 47 44 42 39 37 36 36 37 37 36 37 38 38 35 30 23 18 14 11 8 6 4 3 3 3 3 3 3 3 4 4 4 5 5 5 5 5 5 5 5 5 5 5 5 5 5 5 5 5 5 5 5 6 6 6 5 3 3 3 10 25 38 42 43 44 44 43 40 36 30 25 21 18 15 13
51 54 59 60 58 57 56 55 53 52 49 47 44 41 39 39 38 38 37 37 38 39 36 30 24 19 14 11 9 6 4 4 3 3 3 3 3 4 4 4 4 5 6 5 5 5 5 5 5 5 5 5 5 4 5 5 5 5 6 6 5 5 6 6 6 5 4 3 3 11 27 39 43 45 45 45 44 42 40 36 31 26 23 20 18
55 61 65 65 62 60 58 56 55 54 52 49 46 43 42 41 39 38 38 38 39 38 32 25 20 15 11 9 7 4 4 4 3 3 4 3 4 4 4 5 5 6 6 5 5 5 5 5 5 5 4 4 5 4 4 5 5 6 6 6 6 6 6 6 6 5 4 3 3 11 29 40 44 46 47 46 44 42 40 38 36 32 29 26 23
59 68 69 65 62 60 58 57 57 55 54 51 48 45 44 42 40 40 39 38 38 35 29 21 16 12 8 6 5 4 4 4 3 4 3 4 4 4 5 5 5 6 5 5 5 5 5 5 4 4 4 4 4 4 4 5 5 6 6 6 7 7 6 7 7 6 4 4 3 11 29 42 46 47 47 47 46 43 41 39 37 35 33 31 29
63 71 68 64 62 61 62 62 60 58 56 54 51 48 45 43 41 40 39 38 36 32 24 18 13 9 6 5 4 3 4 4 3 4 4 4 5 4 5 6 5 5 5 5 5 5 5 4 4 4 3 3 4 3 4 4 5 5 6 7 7 7 7 7 7 6 5 4 3 10 28 42 47 48 47 47 47 45 43 41 39 37 35 34 33
66 71 67 65 64 65 66 65 64 62 59 56 52 50 46 43 42 40 39 37 33 27 20 14 9 6 4 4 4 4 4 4 4 4 4 4 5 5 6 6 6 5 5 5 5 5 4 4 4 3 3 3 3 3 4 4 5 5 6 8 8 8 9 8 8 7 6 5 3 9 28 45 51 51 49 49 48 47 45 43 41 38 37 36 36
68 70 67 67 67 68 69 68 67 64 60 57 54 51 47 44 43 40 38 35 29 21 15 10 6 4 4 4 4 4 4 4 4 4 5 5 5 6 6 6 6 5 5 5 5 4 4 3 3 3 3 3 2 3 4 4 5 6 6 7 7 8 10 10 9 8 6 5 3 9 30 50 55 54 53 52 50 49 49 47 45 42 39 38 38
71 71 69 71 72 71 72 71 69 64 61 59 55 52 49 46 42 39 35 30 22 15 10 7 4 3 4 4 4 4 4 4 4 5 5 5 6 6 6 6 6 6 6 5 4 4 3 3 3 2 2 2 2 2 3 4 5 6 6 7 7 9 11 10 10 9 7 6 3 10 33 54 59 59 59 57 54 52 51 50 50 48 43 40 39
74 73 73 76 76 76 75 72 68 65 63 61 57 54 50 46 41 37 31 24 16 10 7 4 3 4 4 4 4 4 4 4 5 5 5 6 6 6 6 6 6 6 5 5 4 3 3 2 2 2 2 2 2 2 3 4 5 5 6 7 7 9 10 11 11 9 8 6 3 10 33 56 63 62 62 61 60 59 56 53 51 52 51 46 41
75 76 79 81 80 79 76 73 70 68 65 63 59 55 50 46 41 34 27 19 12 8 5 4 4 4 3 4 5 4 5 5 5 6 6 6 7 6 7 6 6 6 5 4 4 3 3 3 2 2 2 2 2 2 3 4 5 5 6 6 8 10 10 11 11 10 8 6 3 9 31 55 65 65 64 61 61 63 62 58 53 52 54 54 49
75 80 83 85 84 81 78 75 73 70 67 65 61 56 50 45 39 30 22 15 9 7 5 4 4 4 4 5 5 5 5 5 6 6 6 7 7 7 7 6 6 5 4 4 3 3 3 3 3 2 2 2 3 3 3 4 5 6 6 6 7 9 11 12 12 11 8 6 4 8 30 54 64 67 67 63 60 62 63 62 59 53 51 52 53
72 79 86 88 87 83 79 77 75 72 70 67 61 56 51 44 35 26 17 11 8 6 4 3 4 4 5 4 5 6 5 5 6 6 7 7 7 7 7 6 5 4 4 3 3 3 3 3 3 3 2 3 3 3 3 4 5 6 7 7 7 9 11 12 13 11 9 7 4 7 30 55 63 66 70 67 64 64 63 63 63 60 56 50 49
71 78 85 87 84 81 81 81 79 74 71 69 65 59 51 42 31 21 14 10 7 4 3 4 5 4 5 6 5 5 5 7 8 7 7 8 7 7 6 5 5 4 4 4 4 4 4 3 3 3 3 3 3 3 4 4 5 6 7 9 10 11 12 12 13 12 9 8 4 7 31 57 63 64 70 70 69 69 68 69 68 64 62 59 55
78 81 83 85 83 80 77 76 74 73 70 72 74 66 51 38 26 17 12 8 4 4 4 4 4 5 6 5 4 8 12 13 10 7 8 8 7 7 6 5 5 4 4 4 4 4 3 4 4 3 3 4 3 4 4 4 6 6 8 10 11 12 13 13 12 11 9 8 5 7 31 58 64 63 67 69 71 72 72 74 73 67 62 61 65
88 88 89 89 84 78 74 70 70 75 75 74 73 61 44 31 21 14 9 4 3 4 4 4 6 6 5 5 12 20 19 13 8 7 8 8 7 6 5 5 5 5 5 5 4 4 4 3 4 3 3 4 4 4 4 5 6 7 10 13 13 14 16 14 13 12 10 8 5 8 29 59 70 68 69 70 71 76 77 77 77 72 64 57 57
87 86 88 89 83 80 80 77 77 82 79 70 62 49 33 23 16 12 7 4 4 4 4 6 6 4 7 17 24 23 13 7 7 8 9 8 7 6 5 5 5 5 6 5 5 5 4 3 4 3 4 4 4 5 5 5 6 8 11 13 15 17 18 16 15 13 10 8 7 10 30 61 76 72 69 69 71 76 79 79 78 74 69 62 53
86 86 87 87 85 82 79 77 79 82 74 63 54 41 26 18 14 11 8 4 3 4 4 5 5 9 20 26 22 12 7 8 9 9 9 8 7 6 6 6 6 6 6 5 5 5 3 3 3 3 4 4 5 5 5 6 8 9 10 12 16 18 18 18 17 13 11 10 9 15 37 69 84 75 66 68 72 77 80 81 82 77 71 68 63
91 90 86 85 85 81 75 76 78 76 66 59 52 40 26 18 14 10 6 3 3 4 4 5 10 20 25 19 10 6 8 9 9 9 10 8 6 6 6 6 6 6 6 5 5 4 3 4 4 4 4 4 5 5 5 7 9 9 11 13 15 17 20 21 17 12 11 9 10 26 52 76 85 76 66 65 70 79 83 83 85 81 76 74 72
89 85 83 82 83 81 78 79 78 70 63 60 53 41 30 20 13 8 4 3 4 4 5 11 19 22 16 8 7 8 9 9 10 10 9 7 7 7 6 7 7 6 6 5 5 5 4 4 4 4 4 4 5 5 6 8 10 10 13 14 16 20 24 23 17 12 11 7 13 42 72 85 87 80 69 66 72 82 86 86 88 85 82 84 82
88 86 86 85 84 82 81 82 79 70 65 62 54 42 30 18 10 6 4 4 4 6 12 20 22 16 8 6 8 9 9 11 11 10 9 8 8 7 7 8 7 7 6 5 5 5 4 4 4 4 4 4 4 5 6 8 10 11 13 15 20 26 27 22 17 13 10 7 18 55 87 94 94 90 77 70 77 85 88 91 92 84 76 77 77
93 90 88 84 81 80 82 85 81 72 65 61 52 39 26 15 8 5 4 4 4 10 20 23 17 9 7 8 9 9 11 12 11 10 10 9 8 8 8 7 6 7 6 5 5 5 3 4 4 3 4 4 4 6 7 9 12 14 15 18 24 29 27 22 17 13 10 9 23 61 94 98 98 97 86 78 82 88 91 94 95 87 74 66 68
90 85 81 78 77 77 81 86 83 73 65 58 48 35 23 14 9 5 4 4 6 14 23 19 10 7 7 8 9 11 12 12 11 11 10 9 9 8 7 7 6 6 5 4 4 4 3 4 4 3 4 3 4 6 8 12 16 18 21 25 27 29 26 22 17 12 10 8 17 55 91 99 99 99 90 79 80 85 92 97 98 97 88 73 69
85 81 76 76 77 78 81 85 83 76 68 59 46 33 23 15 9 5 4 5 10 18 20 12 7 7 8 8 11 12 13 12 12 11 10 9 9 7 6 7 6 5 5 4 4 4 4 4 4 3 3 3 5 8 12 16 19 21 25 27 27 29 28 22 17 13 11 7 13 47 87 99 98 101 97 85 78 79 87 96 99 100 98 87 74
Wind_Speed
9 10 9 9 9 8 7 6 5 2 2 2 2 2 1 1 1 1 2 3 3 3 3 3 3 4 5 5 5 6 6 6 8 9 8 8 8 11 12 11 12 13 13 14 15 15 16 16 17 18 19 19 20 20 21 21 22 23 23 23 24 24 24 24 24 23 23 22 22 21 20 20 20 19 19 18 18 17 16 17 16 16 16 15 15
10 11 11 10 8 8 8 6 3 2 2 1 1 2 2 1 2 2 3 4 4 3 3 3 3 3 3 5 5 5 5 6 8 9 10 10 9 10 13 13 14 15 15 16 16 17 18 18 19 20 21 21 22 22 22 23 24 24 24 24 24 24 25 25 24 24 24 23 23 22 21 21 20 20 20 19 19 19 18 17 17 17 17 16 16
11 12 12 10 9 10 9 6 4 3 1 1 2 2 2 2 3 3 3 4 4 3 3 2 3 3 4 4 5 5 6 7 9 11 13 14 12 11 14 16 16 17 18 18 19 19 20 20 21 22 22 23 24 24 24 24 24 24 24 24 24 24 25 25 25 25 25 24 23 22 22 21 20 20 20 20 20 20 20 19 18 18 18 17 17
14 14 14 11 10 10 8 6 5 3 2 2 2 3 2 3 3 4 4 4 4 3 3 3 3 4 4 4 5 6 8 8 10 12 13 16 17 15 15 16 17 19 20 20 20 21 21 22 22 23 23 24 25 25 25 24 25 25 25 24 25 25 25 25 25 25 25 25 24 23 22 21 20 20 21 21 21 21 21 21 20 19 19 18 18
14 16 16 13 11 10 7 5 3 2 2 2 2 3 3 3 4 4 4 3 4 4 4 3 4 4 5 5 6 8 10 11 11 13 14 15 18 20 19 19 19 20 20 21 22 22 22 23 23 24 24 25 26 26 26 25 25 26 26 26 26 25 25 25 24 24 24 24 24 23 22 21 21 20 21 22 22 22 22 22 22 21 20 20 19
15 15 15 11 8 9 7 3 2 1 2 2 2 3 3 3 4 4 4 4 4 4 5 5 4 5 6 7 9 10 11 12 13 14 15 16 18 20 21 23 23 23 22 22 23 23 23 24 24 25 25 26 26 27 27 26 26 26 27 27 27 26 25 25 24 24 23 24 24 23 23 23 22 21 22 22 22 23 23 23 23 22 21 21 21
15 14 12 10 9 9 4 3 2 2 2 3 3 3 3 4 4 5 5 4 4 5 7 6 6 7 8 9 10 11 12 14 15 16 17 18 20 21 22 23 24 25 25 24 24 24 24 25 26 26 26 27 27 27 27 27 27 27 28 28 28 28 27 26 25 24 23 23 24 23 23 24 24 23 23 23 23 24 24 24 23 22 22 22 22
14 13 11 10 9 7 2 1 3 3 4 4 4 4 4 4 5 6 5 5 5 6 7 7 8 9 9 10 10 12 14 15 17 18 20 21 22 23 24 24 24 25 25 25 25 25 25 26 27 27 27 28 27 28 28 28 28 28 28 29 28 28 28 27 26 25 24 23 23 23 23 24 25 25 24 24 25 25 24 24 24 24 24 24 23
12 15 14 11 8 5 2 3 5 5 5 5 5 4 4 6 6 7 7 7 7 8 9 8 9 10 10 12 12 14 16 17 19 20 22 23 23 24 24 24 24 24 25 25 26 26 26 26 27 27 28 28 28 28 29 29 29 29 28 28 28 28 28 28 27 26 26 25 24 23 23 24 25 26 26 25 25 26 26 25 25 25 26 26 25
12 13 14 12 9 7 6 6 6 6 6 6 7 6 7 8 8 8 8 8 8 10 11 10 11 12 12 14 15 17 18 19 21 22 23 23 23 24 24 24 24 24 24 25 25 26 27 27 27 27 27 28 28 28 29 29 29 29 29 29 29 29 29 30 29 28 28 27 26 25 24 24 25 26 27 27 27 26 27 26 25 25 26 28 27
12 11 11 10 9 8 7 7 7 7 7 8 7 8 8 9 9 8 9 9 10 12 12 11 13 14 14 16 17 19 20 21 22 22 23 23 23 23 24 24 24 24 24 24 25 26 27 27 27 28 28 28 28 28 28 29 29 29 29 30 30 31 31 31 31 30 30 29 28 27 26 26 25 26 27 28 29 28 27 27 27 27 26 27 28
11 11 9 9 8 8 8 8 8 7 7 8 8 9 9 9 9 9 10 10 11 13 13 13 15 16 17 18 19 20 21 22 22 22 22 22 23 23 23 24 24 24 25 25 26 26 26 27 28 28 29 28 28 28 28 29 29 30 30 31 31 32 32 32 31 31 31 30 30 29 28 27 27 26 27 28 30 30 30 28 28 28 28 28 28
11 10 9 8 9 9 9 8 8 7 7 8 9 10 10 10 10 10 11 11 12 14 14 14 17 18 19 21 21 22 22 22 22 22 22 22 22 23 23 24 24 25 25 25 26 26 26 27 27 28 29 29 29 29 29 30 30 30 30 31 31 31 31 31 31 31 31 31 31 31 31 30 29 28 27 28 28 30 31 31 29 28 29 29 29
11 10 9 9 10 9 9 9 8 8 9 12 13 12 11 11 11 11 12 12 13 14 15 17 19 21 21 22 21 20 21 22 21 21 21 21 22 22 23 23 24 24 25 25 26 26 26 26 27 27 28 29 30 30 30 30 30 30 30 30 29 30 30 30 30 31 31 31 31 32 32 32 32 31 30 29 29 29 30 32 32 30 29 30 31
11 11 10 10 10 10 10 10 10 12 14 15 16 14 13 12 12 12 12 13 14 16 18 19 21 22 21 21 20 19 20 19 19 19 20 21 21 22 22 23 24 24 25 25 26 26 26 26 27 27 28 28 29 30 30 29 29 28 28 28 28 28 29 30 30 31 31 31 32 32 32 33 33 34 33 33 32 30 29 30 32 33 31 30 32
12 12 12 12 11 11 12 13 15 16 15 15 15 14 13 12 12 13 13 15 16 18 19 20 20 21 20 20 20 20 19 17 17 19 20 20 21 22 23 23 24 24 25 26 26 26 26 26 26 27 27 28 28 28 28 28 28 28 27 27 28 28 29 30 31 32 32 33 33 33 33 33 34 34 35 35 35 35 33 31 30 32 33 32 32
14 14 14 13 12 13 15 16 16 16 15 14 13 13 13 13 14 14 15 17 18 19 19 19 19 18 17 17 16 17 19 18 18 19 20 21 22 22 23 23 24 24 25 25 25 26 26 26 27 27 27 27 27 27 27 26 26 27 27 28 28 29 30 31 32 33 34 35 35 35 35 35 35 35 35 36 37 37 37 35 33 32 32 33 33
16 16 14 14 14 15 16 16 16 15 14 13 13 13 14 15 15 16 17 18 18 18 18 18 17 16 15 14 13 15 18 18 19 20 20 21 22 22 23 23 24 24 24 25 25 26 27 27 27 27 27 26 26 25 25 25 25 26 27 29 30 31 32 33 34 35 36 37 38 38 38 38 38 37 37 37 37 38 38 39 38 35 33 33 34
16 16 14 14 14 14 15 15 15 14 14 14 14 15 15 16 17 17 18 18 18 17 17 16 15 14 14 13 12 14 16 16 19 21 22 22 21 22 24 24 24 24 24 25 25 26 27 27 27 27 26 25 24 24 24 25 26 28 29 31 32 34 35 36 37 38 39 40 41 41 42 42 41 41 40 39 39 39 39 40 41 40 38 35 35
16 15 14 14 14 14 15 15 15 15 15 15 15 16 17 18 18 18 18 17 17 16 16 15 14 13 13 12 12 13 15 16 18 20 23 24 23 22 23 24 24 24 25 25 26 27 26 26 26 26 25 24 24 25 25 26 28 29 31 32 33 35 36 38 39 40 41 42 43 44 44 44 44 44 43 42 42 40 40 41 41 42 42 39 38
15 15 15 15 15 15 15 15 15 15 15 15 16 17 18 19 18 18 17 17 16 16 15 14 13 12 12 12 13 14 15 16 17 18 20 23 25 25 25 25 24 24 25 26 27 27 26 24 23 23 24 24 26 27 28 29 30 30 32 33 34 36 37 38 40 42 43 44 45 46 47 47 47 47 46 46 45 44 42 41 42 42 43 42 41
15 15 15 16 16 16 16 16 16 16 16 16 17 18 18 18 17 17 17 16 16 15 14 13 12 13 12 13 13 14 15 16 16 17 18 20 23 25 26 27 27 26 25 25 26 25 24 23 22 22 23 25 27 28 29 30 31 32 33 34 35 36 38 39 41 43 45 46 48 49 50 51 51 51 50 49 48 47 45 43 42 42 43 43 43
16 15 16 16 16 17 16 16 16 16 17 17 18 18 18 17 17 17 17 16 15 15 14 13 12 13 13 13 14 14 14 15 15 17 19 20 21 23 24 25 27 28 26 24 24 23 23 23 23 23 24 26 27 28 30 31 32 33 34 35 36 38 39 41 42 44 46 48 50 51 52 53 54 54 53 51 49 47 45 43 41 41 43 43 43
16 16 16 17 17 17 17 16 16 17 18 18 18 17 17 17 17 17 16 15 15 14 13 13 13 13 14 14 14 13 13 15 16 18 19 19 20 21 23 23 25 26 27 25 23 22 22 23 24 25 26 27 28 29 30 32 33 34 36 37 38 39 40 41 42 44 46 48 50 52 53 54 54 54 53 51 49 46 44 41 39 39 40 42 43
17 17 17 17 17 17 17 17 17 18 18 17 17 17 17 17 17 16 16 15 14 14 13 13 14 14 15 14 13 13 13 15 16 18 18 19 19 20 21 22 22 22 24 25 23 22 23 24 24 26 27 28 29 30 32 33 34 36 37 38 38 39 40 41 42 43 45 47 50 52 54 54 53 52 51 50 49 46 43 40 38 36 36 38 40
17 16 17 17 17 17 17 17 17 17 17 16 17 17 17 17 16 16 15 14 14 14 14 14 15 15 15 14 13 13 13 15 16 17 17 18 19 19 20 20 20 19 19 21 22 22 22 24 25 25 26 27 29 30 32 33 34 35 36 37 37 38 39 40 41 42 44 46 48 49 51 51 51 50 48 48 47 46 43 40 38 36 34 34 36
16 15 16 16 17 17 17 17 16 16 16 17 17 17 16 16 16 15 14 14 15 15 15 15 15 15 14 13 13 13 14 14 15 16 16 17 18 18 19 19 19 18 16 17 20 22 22 22 24 25 26 27 28 30 31 32 33 34 35 36 36 37 37 38 39 41 43 44 45 46 47 48 49 48 47 46 45 44 43 40 38 36 33 32 32
16 15 15 15 16 16 16 16 16 16 16 16 16 16 16 15 15 14 14 15 15 15 16 16 15 14 14 13 13 13 13 14 14 15 15 16 17 17 17 16 16 17 17 17 18 21 22 23 23 25 26 27 28 29 31 32 32 33 34 35 36 36 37 38 39 40 42 44 45 45 45 45 45 45 45 45 44 43 41 39 38 36 34 32 30
16 15 15 15 15 15 15 15 16 15 15 15 15 15 15 15 14 14 15 15 15 16 16 16 14 14 13 13 13 13 13 13 13 14 15 15 16 16 15 14 14 15 16 18 18 19 21 22 23 24 25 27 28 29 30 31 32 33 34 35 36 36 37 38 39 41 43 45 46 46 44 43 41 41 42 43 43 43 41 39 37 36 35 33 31
16 15 14 14 15 15 15 15 15 15 15 15 15 15 15 14 14 15 15 16 16 17 16 15 14 13 13 13 13 12 12 12 12 13 14 14 14 14 13 13 13 14 16 17 19 19 20 21 22 24 25 27 28 29 31 32 33 34 35 36 37 38 38 39 40 43 45 47 47 46 44 41 40 39 40 41 42 43 43 41 38 36 35 35 33
16 15 15 15 15 15 15 15 15 15 15 15 15 15 14 14 15 15 16 17 17 17 15 14 13 13 13 13 13 12 12 12 12 13 13 13 13 13 12 12 13 14 16 17 18 20 22 22 23 25 26 28 29 31 32 33 34 34 35 37 38 39 40 41 42 45 47 48 48 46 43 40 39 39 39 40 41 43 44 43 42 39 37 36 36
17 16 16 16 15 15 15 14 14 15 15 15 15 15 15 15 16 16 17 17 17 16 15 14 13 13 13 13 12 12 12 12 12 12 13 13 13 12 12 13 14 15 16 17 18 19 22 24 25 27 28 29 30 32 32 33 34 35 36 37 39 40 41 42 44 46 48 49 48 46 43 39 38 38 39 39 39 40 41 42 43 42 40 38 37
18 17 17 16 15 15 14 14 14 15 15 15 15 15 15 16 17 17 17 17 17 16 15 13 13 13 13 13 12 12 11 11 11 12 12 12 12 12 13 14 15 16 17 18 19 20 22 24 26 28 29 30 31 32 33 34 36 37 37 38 39 40 42 43 45 47 49 50 49 46 43 40 38 38 38 38 37 36 37 38 39 41 41 40 38
19 19 18 17 16 15 15 15 14 15 15 15 15 15 16 16 17 17 17 17 17 15 14 13 13 14 13 12 12 11 11 11 11 12 12 12 12 13 14 15 16 17 19 20 21 22 23 25 27 29 30 31 32 34 35 36 37 38 39 39 40 41 43 44 46 48 50 51 51 48 45 42 40 40 39 38 36 34 33 34 35 36 38 39 39
20 20 19 18 18 17 16 15 15 15 15 14 14 15 16 16 17 17 17 17 16 14 14 13 13 14 13 12 11 11 10 10 11 11 12 12 13 14 15 16 17 18 20 21 23 25 26 27 28 31 32 33 34 35 36 37 38 39 40 40 40 42 44 45 47 49 52 53 53 51 48 45 43 42 42 41 37 34 32 31 32 33 34 35 36
21 21 20 20 19 17 16 15 15 14 14 14 14 15 16 17 17 17 17 16 15 14 14 14 14 14 13 12 11 10 10 10 10 11 11 12 13 14 15 17 18 19 20 22 24 26 27 29 29 31 33 35 36 37 37 38 39 40 41 41 41 42 44 46 48 51 53 54 54 54 52 49 47 46 45 44 40 35 32 30 29 30 31 32 33
23 22 22 21 19 17 16 15 14 14 14 14 15 15 16 17 17 17 16 15 14 14 14 14 14 14 13 12 10 10 9 9 10 10 11 12 13 14 16 17 18 19 21 22 24 26 28 29 30 32 34 36 37 37 38 39 39 40 42 42 42 43 45 47 49 53 55 55 55 56 55 53 51 50 48 45 39 34 31 29 27 27 29 31 32
24 23 23 21 20 18 17 15 14 14 14 15 15 16 16 17 17 16 15 15 14 14 14 14 14 14 12 11 10 10 9 9 10 10 11 12 13 15 16 17 18 19 21 22 24 26 28 30 31 33 34 36 38 39 38 39 40 41 43 44 43 44 46 48 50 54 56 56 56 56 56 55 53 53 51 47 39 32 29 28 27 25 26 29 31
25 24 24 23 21 20 17 16 15 14 14 14 15 15 16 17 16 16 15 15 14 15 15 15 15 14 12 10 10 9 9 10 10 11 11 12 13 15 16 17 18 20 21 22 24 26 28 30 32 33 35 37 38 39 39 39 40 41 43 45 46 47 48 49 51 54 56 57 57 57 57 55 54 52 51 48 41 34 30 28 27 26 26 27 29
26 26 25 25 23 21 20 18 16 15 14 13 14 15 15 16 15 15 15 15 15 15 15 15 15 13 11 10 10 9 10 10 10 11 12 13 14 15 16 17 19 20 21 23 24 26 28 30 32 34 36 37 38 39 40 40 41 42 43 46 48 49 50 50 51 53 56 58 58 58 57 57 55 53 52 48 42 36 33 31 30 29 28 28 28
27 27 27 27 26 25 24 22 20 17 13 11 12 14 15 15 15 14 14 15 15 15 15 15 14 12 11 10 10 9 10 11 12 12 13 13 14 15 16 17 19 20 22 24 25 27 28 30 33 35 36 37 39 40 41 41 42 43 44 46 48 49 50 51 51 53 56 59 59 59 58 58 57 54 53 50 44 38 35 34 33 32 31 32 31
28 28 29 29 29 28 25 22 21 17 12 9 11 13 14 15 15 14 14 14 15 15 14 14 13 11 10 9 8 9 11 12 13 13 13 14 15 15 16 18 19 21 22 24 25 27 29 30 33 35 37 38 39 40 41 42 42 43 45 46 48 49 50 51 52 53 56 59 60 59 58 58 57 56 55 52 45 39 36 35 35 33 32 31 31
28 29 30 29 25 22 20 19 20 18 14 12 11 12 13 15 14 14 14 14 15 14 13 13 12 10 9 8 9 12 13 13 12 12 13 14 15 16 17 18 20 22 23 25 26 28 30 31 33 35 38 38 39 40 41 42 43 44 45 46 47 49 50 51 53 55 58 60 61 60 58 58 58 58 56 52 45 39 36 36 35 34 32 30 28
28 28 28 26 21 18 18 21 21 19 18 15 11 11 13 14 14 14 14 15 15 14 13 12 10 9 9 10 12 13 12 11 11 12 13 15 16 17 18 19 20 22 24 26 28 30 31 33 34 36 38 38 38 39 40 42 44 44 44 44 46 47 48 50 53 56 59 60 62 62 60 59 60 60 58 52 45 39 36 36 35 34 32 29 27
25 23 22 21 20 20 20 20 19 18 17 14 11 12 13 14 14 15 15 15 14 13 12 11 10 10 11 13 12 11 10 10 11 12 13 15 16 17 18 19 21 22 24 26 28 30 32 34 36 37 37 38 38 39 40 42 43 44 44 44 44 46 47 49 51 56 58 59 62 63 62 60 61 61 59 53 46 41 38 36 35 34 31 28 28
21 20 19 20 21 21 18 16 16 15 15 13 11 12 14 14 15 15 15 14 13 12 12 11 10 11 12 12 11 10 10 10 11 12 14 14 16 17 19 20 22 24 25 26 28 30 32 35 37 37 37 38 38 39 39 40 41 42 43 43 44 45 47 48 50 53 56 57 60 63 62 61 61 62 60 55 50 45 41 38 35 31 29 27 27
23 22 21 21 22 21 17 15 15 14 13 13 13 14 15 15 15 15 15 14 13 12 11 11 12 12 11 11 10 9 9 9 10 12 13 14 16 17 19 21 23 24 25 26 28 30 31 33 35 36 37 37 37 37 37 38 38 39 40 41 42 45 46 47 48 51 53 55 58 60 60 61 62 64 62 58 54 50 45 39 33 28 26 26 26
24 22 20 20 20 19 17 16 16 15 14 14 14 15 15 15 15 15 14 14 13 12 12 12 12 12 11 10 9 8 8 9 10 11 12 14 15 17 18 20 21 23 24 25 26 28 30 31 33 35 35 35 34 34 34 34 36 37 38 40 42 43 45 46 48 50 53 55 56 57 58 60 61 64 64 61 57 53 47 38 30 27 26 24 22
22 21 19 19 19 18 18 19 18 17 15 15 15 15 15 15 14 15 15 14 13 13 13 13 12 11 11 10 8 7 7 9 10 11 12 13 15 16 18 19 20 21 23 24 25 27 29 31 33 33 32 32 31 32 32 33 35 37 39 41 41 42 43 46 48 50 52 54 55 55 56 58 60 62 64 63 57 51 46 38 29 27 26 21 16
21 20 18 18 19 18 20 21 20 18 16 15 15 14 15 15 15 15 15 15 14 14 14 13 13 12 11 9 8 7 7 8 9 10 11 13 14 16 17 19 20 21 22 23 24 26 28 30 31 31 32 32 33 33 34 35 35 36 38 39 39 40 42 44 47 50 52 53 54 55 55 56 58 60 64 64 58 48 44 39 31 26 24 19 13
21 20 19 19 19 20 22 22 20 19 17 15 15 15 15 15 15 16 16 16 16 16 15 14 13 11 10 9 8 7 7 8 9 10 11 13 14 16 17 18 19 20 22 23 25 26 28 29 31 33 35 36 36 36 36 36 36 35 35 34 35 37 40 42 45 49 52 53 54 54 54 56 57 58 59 62 59 49 42 38 32 24 22 20 15
Wind_Direction
274 281 283 282 278 272 260 248 252 222 208 258 308 306 242 170 159 203 268 284 287 294 305 314 320 315 312 313 309 310 315 310 314 321 325 336 337 329 329 328 323 322 322 323 325 325 325 325 324 323 322 322 322 322 322 321 320 319 319 318 318 318 318 319 319 320 320 319 319 318 317 316 314 313 311 309 307 305 302 297 295 295 294 292 288
264 267 267 267 265 260 250 237 234 228 220 230 261 275 263 220 215 235 257 276 287 298 300 302 304 299 301 302 302 304 305 304 309 313 314 322 333 325 321 320 318 318 320 321 322 321 321 321 320 319 319 319 319 319 319 319 318 318 318 317 315 315 316 317 318 318 318 317 316 315 315 313 311 310 308 305 303 304 303 298 293 291 292 292 290
253 255 257 254 248 249 247 226 202 214 231 185 205 227 242 250 250 254 267 276 276 277 275 265 267 281 288 291 296 296 299 303 307 310 311 315 323 322 315 316 318 318 320 321 320 319 318 318 318 318 318 319 320 319 319 319 318 317 317 316 315 315 315 315 316 316 316 315 315 314 312 311 308 306 303 301 300 299 300 298 293 289 288 289 289
254 255 251 236 230 239 246 236 203 187 209 197 214 229 229 240 249 257 262 261 251 235 236 238 247 265 277 286 294 298 303 305 303 304 307 311 316 317 314 314 317 319 319 319 318 317 317 318 318 319 319 319 319 319 319 319 318 317 316 316 315 315 315 314 315 314 314 314 313 313 311 309 306 302 299 296 296 294 293 294 294 291 288 286 286
265 267 255 234 223 224 221 239 232 179 220 222 223 234 235 241 245 249 244 234 228 220 224 233 244 259 271 284 293 298 301 301 301 304 307 311 313 316 316 315 316 316 317 316 315 316 317 317 318 318 318 318 319 319 319 319 319 318 317 316 315 315 315 314 314 314 313 312 312 312 310 308 305 301 297 293 292 290 288 289 291 292 289 285 282
270 272 262 255 251 233 202 199 248 232 250 246 244 253 251 250 243 234 229 223 222 222 228 232 243 264 282 291 294 296 299 302 305 307 309 310 311 314 317 318 318 316 316 315 315 316 316 317 317 318 319 319 319 320 319 319 318 318 317 316 316 316 316 315 314 313 312 311 311 311 309 306 304 302 298 295 292 288 286 285 286 288 289 288 283
264 263 264 283 286 260 211 162 233 257 260 258 268 272 256 241 233 230 225 219 222 236 243 248 263 278 287 289 290 294 299 301 304 307 308 310 311 312 315 316 317 316 315 315 315 316 317 317 318 319 319 320 320 320 319 318 317 317 317 317 317 317 317 317 316 314 313 311 310 310 307 305 304 302 299 296 294 290 287 284 283 283 284 286 285
268 268 272 283 276 261 223 188 248 252 255 260 266 262 254 251 249 248 245 237 238 252 260 267 276 280 285 287 291 295 297 301 305 308 308 309 310 311 313 313 313 314 314 315 316 316 317 318 318 319 319 319 319 318 317 317 317 317 317 317 318 318 318 317 317 315 314 312 310 308 306 304 303 301 299 296 295 293 289 285 282 279 278 280 282
280 285 292 297 296 295 292 250 248 252 254 256 256 251 254 262 262 257 256 258 258 264 271 275 276 279 287 293 297 299 301 305 306 307 306 307 308 309 310 311 312 313 314 315 315 316 316 317 318 318 317 317 317 317 317 317 317 317 317 318 318 318 318 317 317 316 314 313 311 308 306 304 302 301 299 296 294 292 291 288 283 279 276 275 275
271 281 294 304 307 297 276 255 249 254 253 250 247 240 238 242 247 248 250 258 263 268 274 280 283 288 295 297 299 302 304 306 304 304 304 305 307 308 310 311 312 313 313 314 315 317 317 317 316 316 316 316 317 318 318 318 318 318 319 319 319 318 318 317 316 315 314 313 311 309 307 304 302 300 299 297 295 292 290 289 286 281 276 274 272
262 271 283 288 284 272 260 251 248 248 247 245 242 239 241 240 241 246 250 257 265 272 279 286 290 293 297 299 302 304 304 303 302 302 304 306 308 310 312 312 312 313 315 316 317 318 317 317 317 317 317 318 319 320 320 320 320 321 321 320 319 319 318 317 316 315 314 314 312 310 308 305 302 299 297 296 295 293 290 288 286 282 278 275 273
259 265 269 269 266 260 249 244 244 243 244 246 245 244 247 247 248 252 257 264 269 273 281 289 293 298 302 303 305 304 303 302 302 305 307 310 311 312 313 313 315 316 317 318 318 318 318 319 320 320 320 320 320 321 322 322 322 321 321 320 319 318 318 317 316 316 316 315 314 313 311 308 304 300 296 293 292 292 291 289 286 283 280 276 272
262 262 261 257 253 247 242 241 238 235 241 246 251 253 249 249 252 257 262 267 273 278 287 295 298 302 304 305 305 303 302 302 304 308 310 311 312 313 315 316 317 317 317 317 318 319 320 321 321 321 322 322 322 323 323 323 322 321 321 321 320 319 319 318 318 318 317 317 316 315 313 311 308 304 299 294 291 289 289 288 286 283 281 278 274
261 255 250 247 243 241 240 237 230 230 240 246 252 256 252 251 254 258 265 270 278 287 295 300 300 301 302 302 302 302 302 304 307 308 310 311 313 314 316 316 316 316 316 317 318 319 321 321 322 322 322 323 323 323 322 322 322 322 322 322 322 321 321 321 320 320 319 318 317 315 314 312 310 308 304 300 295 290 286 286 285 283 280 278 276
252 245 241 238 236 236 232 229 235 244 249 249 252 253 251 254 258 263 271 278 286 293 297 300 300 302 302 301 302 302 302 305 306 307 310 313 315 315 315 315 315 316 318 319 320 321 322 322 322 322 322 322 322 321 322 322 323 323 324 324 323 323 323 322 322 320 319 318 316 315 313 311 310 308 306 303 300 296 290 285 283 282 280 276 275
240 234 233 232 229 227 225 230 243 252 253 250 250 250 253 258 263 269 278 286 292 295 297 299 299 301 303 305 309 307 307 310 309 311 315 315 316 316 315 316 317 319 321 321 321 322 322 322 322 322 322 322 322 322 323 324 325 325 325 326 325 325 325 324 322 321 320 318 316 314 312 310 308 306 304 302 300 298 295 290 284 281 279 276 273
229 228 229 227 225 222 225 235 246 251 251 248 250 254 258 262 267 276 284 291 295 295 297 298 298 301 303 309 312 306 310 316 312 313 316 314 315 316 316 319 320 321 321 321 322 322 322 322 323 323 323 324 324 325 326 326 327 327 327 327 327 326 326 325 324 323 321 319 317 315 313 310 307 304 302 300 298 297 295 292 287 282 278 276 273
225 227 229 228 228 227 228 237 245 249 249 249 252 257 260 266 273 282 288 292 294 294 296 297 298 301 303 305 303 298 307 313 310 312 313 313 316 317 318 320 320 321 322 323 323 323 323 324 324 325 326 327 327 327 327 327 328 328 329 329 328 328 328 327 326 324 323 321 319 316 314 311 308 305 302 299 296 294 292 291 289 285 279 275 272
226 229 229 230 231 231 233 240 245 247 248 250 253 258 264 272 279 285 290 292 293 293 294 295 296 298 298 299 296 297 304 309 310 312 312 313 317 319 320 321 322 323 324 323 324 324 324 324 325 327 327 327 327 327 328 329 330 330 331 331 330 330 329 328 327 325 324 322 320 318 315 313 310 307 304 301 297 293 290 288 287 285 281 276 271
228 229 228 229 231 234 238 242 245 245 247 251 255 262 269 276 282 287 289 291 292 292 293 292 292 293 294 295 298 301 305 307 309 312 314 316 319 321 322 323 324 324 323 324 324 324 325 326 327 327 327 327 327 328 329 331 332 332 332 331 330 330 329 329 327 326 324 322 320 318 315 313 311 308 305 302 299 295 290 287 284 282 281 278 273
229 229 228 230 232 236 240 242 245 247 250 254 259 266 273 278 282 286 288 290 291 291 289 289 289 291 293 296 300 301 302 303 305 310 317 319 321 323 323 322 322 322 323 324 324 324 325 326 325 324 325 328 329 331 332 332 333 332 331 330 329 330 329 328 327 326 325 323 320 318 316 314 311 309 307 304 301 297 292 287 283 280 278 276 274
229 230 230 232 235 239 243 245 248 250 254 259 265 270 274 278 281 284 287 289 289 287 285 286 289 291 293 295 296 296 297 301 307 314 320 320 320 322 323 322 322 322 323 323 323 323 322 321 321 325 328 330 331 332 332 332 331 330 329 329 329 328 327 327 327 326 324 322 320 319 317 315 313 311 309 306 303 299 294 289 283 278 274 273 271
230 233 235 236 237 241 246 248 252 255 261 265 268 271 274 277 280 283 285 285 284 282 281 283 286 288 290 291 291 293 299 306 314 319 321 320 319 319 321 322 320 320 321 321 320 319 319 322 325 329 331 331 332 331 330 330 328 328 329 330 329 328 328 328 327 325 323 322 320 319 317 316 314 312 310 307 304 301 297 292 286 279 274 270 267
234 236 238 239 240 244 249 253 258 262 265 268 269 271 273 276 279 281 282 281 279 277 277 280 283 285 286 287 290 297 305 314 319 321 320 319 319 318 318 318 317 318 318 318 319 319 323 328 330 331 331 332 332 330 329 328 329 330 330 329 329 329 328 327 326 325 324 322 321 319 317 316 314 311 309 308 306 303 300 296 291 284 277 270 265
238 240 241 243 244 248 253 258 262 265 266 267 268 270 273 275 278 279 278 277 275 274 275 279 282 283 284 287 293 303 312 318 319 319 319 319 318 317 316 316 315 315 317 319 323 327 329 330 330 330 331 332 331 329 329 330 331 331 330 330 330 329 328 327 327 326 325 323 322 320 318 315 313 311 309 308 306 305 303 300 296 290 282 274 267
241 243 243 245 248 252 257 260 262 263 264 266 268 271 273 275 275 276 276 275 273 273 277 280 281 282 285 291 299 308 315 318 319 319 319 318 316 315 315 314 312 312 318 322 324 327 329 328 328 329 330 330 330 329 329 330 331 331 330 329 328 328 329 328 328 327 326 325 323 320 317 314 311 309 308 306 305 304 303 301 299 294 287 280 273
243 245 245 248 251 254 256 258 260 261 263 266 269 271 273 274 275 276 275 273 273 275 278 279 280 283 288 295 303 310 315 319 319 318 317 315 314 314 313 312 311 313 318 321 321 322 325 327 327 328 328 329 329 328 328 329 330 329 328 327 328 329 329 328 328 327 326 325 323 321 318 315 312 310 307 304 302 301 300 300 298 295 291 285 280
246 248 249 250 251 253 255 257 258 260 263 266 270 272 273 274 276 275 273 274 275 276 277 277 280 286 291 298 304 310 315 317 317 315 314 314 313 312 311 310 311 314 317 320 321 321 323 326 327 327 328 328 328 327 327 327 327 326 325 326 328 329 329 329 330 328 326 327 328 327 324 320 316 312 308 304 301 299 297 296 295 293 291 287 282
246 247 248 249 251 252 253 254 256 260 264 268 271 273 275 276 276 275 274 275 275 274 275 278 283 289 294 299 305 310 313 313 311 310 311 312 312 310 309 307 308 313 317 319 320 321 322 324 325 326 325 325 326 325 325 325 325 325 326 328 329 330 331 332 331 329 329 332 334 333 328 323 318 314 310 306 302 299 296 293 291 289 288 286 282
244 244 246 249 251 252 253 256 259 264 269 271 273 275 277 278 277 276 275 274 273 273 275 280 286 291 295 299 303 307 307 305 305 307 310 311 310 308 307 308 312 317 319 320 320 320 321 322 323 323 324 324 324 324 325 325 326 328 329 330 332 334 335 335 333 333 334 336 339 337 330 324 320 317 313 309 304 300 297 293 290 286 282 280 278
241 242 246 250 252 254 257 261 265 269 272 273 275 277 278 279 277 276 275 273 272 273 277 283 288 291 294 298 300 301 300 300 303 307 310 310 309 307 308 313 318 320 321 321 321 321 322 323 323 323 324 324 324 325 327 327 329 331 333 335 336 337 337 338 338 337 337 340 343 339 331 325 323 321 317 312 307 303 299 295 292 288 282 278 274
239 242 248 251 254 258 262 267 270 272 274 275 277 278 278 278 276 274 272 271 271 274 279 284 288 291 293 294 296 295 296 299 304 308 311 310 309 310 313 318 320 322 323 322 321 322 324 324 324 325 325 326 327 328 329 330 332 334 337 340 340 339 340 341 340 338 338 342 344 340 333 328 326 325 322 316 310 305 301 297 293 290 286 281 276
238 243 248 250 254 261 266 270 272 274 275 276 278 279 278 276 273 271 270 270 272 275 280 285 287 289 290 291 291 291 294 300 306 310 311 311 312 314 318 322 324 325 324 323 324 326 326 325 325 326 327 328 330 330 330 333 335 337 340 343 342 341 342 342 341 339 340 343 345 342 336 332 330 329 327 322 315 308 303 299 296 292 287 283 279
239 243 247 250 255 262 267 271 273 275 276 277 277 277 276 274 272 271 270 271 273 276 280 283 284 285 287 286 287 290 295 303 308 311 312 313 316 319 324 327 328 327 326 326 328 328 328 329 328 329 330 332 332 332 333 336 337 339 342 344 343 343 344 344 342 340 341 344 345 344 341 338 335 333 331 327 320 312 306 301 298 294 290 285 281
240 243 246 249 254 262 266 270 272 274 275 275 276 276 275 274 272 271 270 271 274 277 279 281 282 283 283 284 286 291 298 304 309 312 314 317 320 324 329 330 329 328 328 330 330 330 330 332 332 333 334 334 334 335 336 336 338 340 340 342 345 345 345 345 343 342 343 345 346 346 345 342 340 337 334 330 323 315 309 303 299 296 292 288 284
240 242 245 249 255 262 266 270 272 274 277 278 278 278 276 274 271 269 270 271 274 276 277 279 280 280 282 284 287 292 298 305 310 314 317 320 324 328 330 329 329 330 331 331 332 331 332 334 335 336 336 336 336 337 336 336 339 339 338 342 346 346 346 346 345 344 344 346 348 348 347 345 343 340 336 332 324 316 311 306 300 294 290 287 285
241 243 246 250 256 262 265 268 271 275 280 282 282 280 277 274 271 270 272 273 274 276 277 278 279 280 281 283 288 293 299 306 312 315 318 321 326 329 329 329 330 331 332 333 332 333 334 334 336 338 338 337 336 336 337 337 338 337 337 341 346 345 346 347 347 345 344 347 350 350 347 345 344 342 338 334 325 315 310 309 304 295 287 283 282
243 245 248 252 257 260 261 265 271 277 282 283 283 280 276 274 273 274 275 275 275 276 277 279 279 279 281 284 288 294 302 309 314 316 319 324 328 328 327 328 330 331 333 333 334 335 335 335 338 339 339 338 336 336 338 338 338 338 337 340 344 346 346 348 349 346 345 348 352 351 347 345 344 343 340 337 330 317 309 309 308 302 290 281 278
245 247 250 254 256 256 257 261 266 273 278 281 281 279 277 276 276 277 278 278 277 277 278 279 279 279 281 285 291 299 306 311 314 316 321 325 327 326 327 328 331 332 333 334 335 336 336 337 339 340 340 338 336 336 338 338 339 340 339 339 343 346 347 348 349 347 345 349 352 351 348 345 345 344 342 338 332 321 312 309 307 304 297 287 278
248 251 253 256 256 255 254 256 260 264 271 278 281 279 279 278 277 279 280 279 279 279 279 279 278 280 283 288 297 303 308 313 316 318 321 324 325 325 327 329 332 333 333 335 337 337 338 339 340 340 339 338 337 337 338 339 340 341 341 341 343 345 346 347 348 347 347 349 351 351 348 345 344 346 344 340 334 325 317 311 306 301 296 290 283
252 254 256 258 258 255 250 248 248 248 250 266 279 280 281 279 277 277 277 278 279 278 278 279 279 281 286 294 301 305 313 317 316 315 317 321 324 326 330 332 332 333 335 337 337 338 339 340 340 339 339 339 339 339 339 341 341 342 343 343 343 344 344 345 347 349 349 349 350 351 349 345 344 346 346 342 336 328 319 312 308 302 296 290 284
256 258 260 261 259 256 253 252 252 248 243 258 277 281 278 275 273 273 274 276 275 276 277 278 279 283 289 295 301 309 313 310 307 310 316 321 325 328 332 333 334 335 337 337 337 338 340 342 341 340 340 341 342 341 340 341 341 342 344 343 342 343 344 343 345 350 350 349 349 350 349 346 344 347 347 343 337 330 322 315 310 306 301 294 287
260 264 268 271 271 268 265 264 265 270 280 285 280 274 270 268 269 271 271 271 271 273 274 274 276 281 285 292 301 304 302 298 301 311 318 323 328 332 335 336 337 339 338 338 339 340 342 342 342 342 341 343 344 343 341 340 341 343 344 342 341 342 343 343 345 349 350 349 349 349 350 347 345 347 348 344 339 334 328 321 314 308 304 300 294
262 264 270 279 290 294 281 268 265 273 284 286 276 264 262 263 265 266 266 267 268 270 270 269 271 274 280 292 298 296 291 294 305 314 321 327 331 335 337 338 339 340 340 340 341 342 342 342 343 344 344 344 345 344 342 341 342 343 342 341 341 342 343 346 348 350 350 349 348 349 350 349 347 347 348 345 342 338 332 326 319 310 302 297 293
263 262 268 281 295 298 286 274 269 272 277 279 270 261 259 260 262 263 263 265 267 269 268 266 265 272 284 292 292 286 288 299 310 317 324 329 332 335 335 335 338 340 341 342 342 342 343 343 344 346 345 344 345 345 344 342 341 340 340 341 341 341 344 348 350 351 350 349 348 349 350 351 348 347 347 346 344 341 335 330 322 312 303 295 291
266 270 279 285 290 291 281 268 264 267 273 276 269 261 260 260 260 260 261 263 266 268 264 260 264 277 285 285 280 281 292 304 314 320 325 330 334 335 335 337 340 341 342 343 343 344 345 344 344 345 345 345 345 345 345 342 339 338 339 339 340 342 346 349 351 352 351 350 349 349 350 351 349 347 347 347 346 343 339 332 325 316 307 300 295
270 275 280 282 285 285 271 254 253 261 269 274 270 263 261 260 260 260 260 262 264 262 257 259 270 277 277 272 273 282 294 307 316 320 326 332 333 334 336 339 341 341 343 345 345 345 345 344 344 344 345 346 345 345 343 340 337 337 337 339 342 344 346 348 351 353 352 351 352 351 351 351 350 347 346 348 348 345 342 336 329 322 313 306 300
271 273 275 278 280 274 256 244 248 258 265 270 270 266 261 259 260 258 258 260 258 254 255 265 272 270 264 264 270 281 295 308 315 320 326 330 331 333 336 339 340 341 342 344 345 345 344 343 344 344 345 345 344 344 343 340 339 338 339 343 346 346 345 348 351 354 353 353 354 354 352 353 351 347 346 349 349 345 344 341 334 331 325 314 305
272 274 274 278 277 263 246 241 244 250 259 266 267 264 260 258 258 256 257 257 254 253 261 269 267 260 257 260 267 279 294 305 312 319 324 326 329 332 334 337 339 340 341 343 344 344 343 344 345 344 343 343 344 345 345 345 345 344 345 347 347 345 346 349 351 354 356 356 355 355 354 354 353 349 346 349 350 346 344 343 339 338 336 325 311
269 271 271 276 276 261 246 242 243 247 254 258 259 259 258 257 256 257 257 254 252 257 264 264 258 253 254 257 264 276 290 302 310 317 322 324 327 330 333 336 337 338 341 342 343 344 345 344 342 342 344 346 349 351 352 352 352 350 350 349 344 344 348 351 352 354 357 358 357 357 356 356 355 352 347 348 349 348 346 344 340 339 341 338 326
265 263 261 263 265 259 251 244 243 248 254 256 256 256 256 256 256 256 254 252 254 260 260 254 249 247 249 252 259 271 285 298 307 314 319 321 324 329 333 334 335 339 341 341 343 345 344 341 342 347 352 354 355 355 356 356 355 355 354 348 344 346 349 351 353 356 358 359 359 358 357 357 357 355 351 349 348 348 348 346 343 340 341 345 343